EHI
0 0 0 0 0 0 0 0 0 0 0 0 0 0 0 0 0 0 0 0 0 4 10 14 16 15 13 12 13 16 17 17 18 19 17 15 12 9 6 4 1 1 2 3 3 3 3 2 1
0 0 0 0 0 0 0 0 0 0 0 0 0 0 0 0 0 0 0 0 0 4 10 15 16 15 13 12 14 16 16 15 16 16 16 15 12 9 7 5 2 2 3 3 3 3 3 3 2
0 0 0 0 0 0 0 0 0 0 0 0 0 0 0 0 0 0 0 0 0 4 9 14 16 14 12 13 15 16 14 13 12 13 15 15 12 9 8 6 4 3 3 3 3 3 3 3 3
0 0 0 0 0 0 0 0 0 0 0 0 0 0 0 0 0 0 0 0 0 3 8 13 15 13 11 11 13 14 13 11 10 11 12 13 12 11 8 6 4 4 4 3 3 3 3 3 3
0 0 0 0 0 0 0 0 0 0 0 0 0 0 0 0 0 0 0 0 0 3 7 12 15 13 9 9 10 11 11 11 11 11 10 10 10 10 9 6 4 4 4 4 3 3 3 4 4
0 0 0 0 0 0 0 0 0 0 0 0 0 0 0 0 0 0 0 0 1 3 7 12 14 13 10 8 7 8 10 10 11 12 10 8 7 8 8 7 4 4 4 4 3 3 3 3 3
0 0 0 0 0 0 0 0 0 0 0 0 0 0 0 0 0 0 0 0 1 3 6 10 12 12 10 7 5 6 8 9 9 9 9 8 7 6 7 6 5 4 4 5 4 3 3 2 1
0 0 0 0 0 0 0 0 0 0 0 0 0 0 0 0 0 0 0 0 1 2 6 8 10 10 9 6 4 4 5 6 6 6 7 8 7 5 5 4 4 4 4 5 5 4 3 1 0
0 0 0 0 0 0 0 0 0 0 0 0 0 0 0 0 0 0 0 0 0 1 4 6 7 8 7 5 3 2 2 3 3 3 5 6 5 4 3 3 3 4 4 5 6 5 2 1 0
0 0 0 0 0 0 0 0 0 0 0 0 0 0 0 0 0 0 0 0 0 0 2 3 4 5 5 4 3 2 2 3 3 3 3 4 3 3 3 3 3 3 3 4 4 3 1 0 0
0 0 0 0 0 0 0 0 0 0 0 0 0 0 0 0 0 0 0 0 0 0 1 2 3 3 3 3 3 3 3 3 3 3 3 3 3 3 3 3 3 3 3 2 2 1 0 0 0
0 0 0 0 0 0 0 0 0 0 0 0 0 0 0 0 0 0 0 0 0 0 1 2 3 3 1 1 2 3 3 3 3 3 3 3 2 2 3 3 3 3 3 1 1 1 0 0 0
0 0 0 0 0 0 0 0 0 0 0 0 0 0 0 0 0 0 0 0 0 0 1 2 3 3 1 0 1 2 3 2 3 3 3 2 1 1 2 3 3 3 2 1 0 0 0 0 0
0 0 0 0 0 0 0 0 0 0 0 0 0 0 0 0 0 0 1 0 0 0 0 1 2 3 2 0 0 1 2 3 3 3 3 2 1 0 1 2 3 3 2 1 0 0 0 0 0
0 0 0 0 0 0 0 0 0 0 0 0 0 0 0 0 0 0 0 0 0 0 0 0 1 2 1 0 0 1 2 3 3 3 3 2 1 0 0 1 2 3 3 1 0 0 0 0 0
0 0 0 0 0 0 0 0 0 0 0 0 0 0 0 0 0 0 0 0 0 0 0 0 0 0 0 0 0 0 1 2 3 3 3 2 1 0 0 0 1 2 2 1 0 0 0 0 0
0 0 0 0 0 0 0 0 0 0 0 0 0 0 0 0 0 0 0 0 0 0 0 0 0 0 0 0 0 0 0 1 1 2 3 2 1 0 0 0 0 1 1 1 0 0 0 0 0
0 0 0 0 0 0 0 0 0 0 0 0 0 0 0 0 0 0 0 0 0 0 0 0 0 0 0 0 0 0 0 0 0 1 2 2 1 0 0 0 0 0 0 0 0 0 0 0 0
0 0 0 0 0 0 0 0 0 0 0 0 0 0 0 0 0 0 1 1 1 0 0 0 0 0 0 0 0 0 0 0 0 0 1 1 0 0 0 0 0 0 0 0 0 0 0 0 0
0 0 0 0 0 0 0 0 0 0 0 0 0 0 0 0 0 0 1 2 2 1 0 0 0 0 0 0 0 0 0 0 0 0 0 0 0 0 0 0 0 0 0 0 0 0 0 0 0
0 0 0 0 0 0 0 0 0 0 0 0 0 0 0 0 0 0 0 1 2 2 1 0 0 0 0 0 0 0 0 0 0 0 0 0 0 0 0 0 0 0 0 0 0 0 0 0 0
0 0 0 0 0 0 0 0 0 0 0 0 0 0 0 0 0 0 0 1 3 3 2 1 0 0 0 0 0 0 0 0 0 0 0 0 0 0 0 0 0 0 0 0 0 0 0 0 0
0 0 0 0 0 0 0 0 0 0 0 0 0 0 0 0 0 0 0 2 3 3 2 1 0 0 0 0 0 0 0 0 0 0 0 0 0 0 0 0 0 0 0 0 0 0 0 0 0
0 0 0 0 0 0 0 0 0 0 0 0 0 0 0 0 0 0 0 1 2 1 1 0 0 0 0 0 0 0 0 0 0 0 0 0 0 0 0 0 0 0 0 0 0 0 0 0 0
0 0 0 0 0 0 0 0 0 0 0 0 0 0 0 0 0 0 0 0 0 0 0 0 0 0 0 0 0 0 0 0 0 0 0 0 0 0 0 0 0 0 0 0 0 0 0 0 0
0 0 0 0 0 0 0 0 0 0 0 0 0 0 0 0 0 1 0 0 0 0 0 0 0 0 0 0 0 0 0 0 0 0 0 0 0 0 0 0 0 0 0 0 0 0 0 0 0
0 0 0 0 0 0 0 0 0 0 0 0 0 0 0 0 0 0 0 0 0 0 0 0 0 0 0 0 0 0 0 0 0 0 0 0 0 0 0 0 0 0 0 0 0 0 0 0 0
0 0 0 0 0 0 0 0 0 0 0 0 0 0 0 0 0 0 0 0 0 0 0 0 0 0 0 0 0 0 0 0 0 0 0 0 0 0 0 0 0 0 0 0 0 0 0 0 0
0 0 0 0 0 0 0 0 0 0 0 0 0 0 0 0 0 0 0 0 0 0 0 0 0 0 0 0 0 0 0 0 0 0 0 0 0 0 0 0 0 0 0 0 0 0 0 0 0
0 0 0 0 0 0 0 0 0 0 0 0 0 0 0 0 0 0 0 0 0 0 0 0 0 0 0 0 0 0 0 0 0 0 0 0 0 0 0 0 0 0 0 0 0 0 0 0 0
Wind_Speed
6 3 3 4 6 4 3 4 2 2 1 0 0 2 4 3 3 2 1 2 2 1 0 1 3 4 6 6 6 6 6 6 6 6 6 7 7 7 7 7 7 7 7 7 7 7 7 7 7
2 2 5 5 5 2 5 4 4 3 2 1 2 2 2 1 1 1 2 3 2 2 1 1 3 5 5 6 6 6 5 5 5 5 6 6 7 6 6 6 6 6 6 6 6 7 7 6 6
2 4 5 5 4 6 5 3 3 1 0 1 2 2 1 0 1 1 2 2 3 3 3 2 5 5 5 5 6 5 5 5 5 5 5 6 6 6 5 6 6 6 5 5 6 6 6 6 6
3 5 5 4 4 5 3 1 2 1 2 2 2 2 1 2 2 1 2 3 4 4 3 3 5 6 5 4 4 5 4 4 4 4 4 5 5 4 5 5 5 5 5 5 5 5 5 5 5
4 5 4 1 4 3 2 2 1 1 0 1 2 1 1 3 3 3 4 4 4 3 3 3 5 5 5 5 4 4 4 4 4 4 4 4 4 4 4 4 4 4 4 4 4 5 4 4 4
4 4 4 3 4 3 2 1 1 1 0 1 2 1 1 2 4 4 4 3 3 3 3 4 5 5 5 4 4 4 4 4 4 4 4 4 3 4 4 4 4 4 3 4 4 4 4 4 4
4 4 4 4 3 2 2 0 2 2 1 1 2 3 1 2 3 3 3 4 4 3 3 4 3 4 5 5 5 4 4 4 3 3 3 3 3 3 3 3 3 3 3 3 3 3 3 3 3
4 5 2 2 3 3 1 1 0 1 2 1 2 4 3 2 2 3 4 5 4 4 4 4 3 3 2 2 4 5 4 4 4 4 4 3 3 2 2 2 2 2 2 2 2 2 2 2 2
4 4 3 4 5 3 0 1 1 1 2 1 1 1 1 1 2 3 3 4 4 5 4 4 3 3 2 2 3 4 4 4 3 2 3 3 1 0 1 1 2 2 2 1 2 2 2 2 2
4 3 5 3 3 2 1 1 1 1 1 1 2 2 1 2 2 2 1 1 2 2 3 3 3 2 2 2 1 1 2 2 2 1 1 1 1 1 2 2 2 1 1 1 1 1 2 2 1
3 4 2 1 0 1 0 1 0 2 3 4 4 2 1 1 1 1 1 0 1 1 2 2 2 2 2 1 1 0 0 1 1 2 1 1 1 1 1 1 1 0 1 1 1 1 1 1 1
2 2 1 0 1 0 1 1 1 2 5 3 3 3 3 3 2 2 2 1 1 1 2 2 2 2 2 1 0 0 0 0 1 1 1 1 0 0 0 1 0 0 0 1 1 1 1 1 1
2 1 0 1 1 0 0 1 2 4 4 1 1 2 3 3 3 2 2 1 1 1 2 2 2 1 1 1 1 0 0 0 0 0 0 1 0 1 1 1 1 0 1 1 1 1 1 1 1
1 1 1 2 1 1 1 3 2 6 2 1 1 2 3 3 3 1 1 2 2 2 2 2 1 1 1 1 1 1 1 1 1 0 0 1 1 1 1 1 1 1 1 1 2 2 2 2 1
1 1 3 2 1 1 0 5 5 6 1 2 2 3 2 2 2 3 3 3 2 2 2 2 1 1 1 1 1 1 1 1 1 1 1 1 1 1 1 1 1 2 1 1 1 1 1 1 1
2 1 3 3 0 1 2 8 6 2 3 3 4 3 3 3 3 3 3 2 1 1 2 2 2 1 1 1 1 1 1 1 1 1 1 2 2 1 1 1 2 2 1 1 1 2 1 1 2
2 1 3 4 1 1 3 7 6 2 3 4 4 4 4 4 4 3 2 2 1 1 2 2 2 1 1 2 1 1 1 1 1 1 1 2 2 2 1 2 2 1 1 1 2 1 2 2 2
4 3 3 4 2 0 3 8 9 4 3 5 4 4 4 4 5 3 2 2 1 1 1 2 2 2 1 1 1 1 1 1 1 1 2 2 2 2 2 2 2 2 1 1 2 2 2 2 2
3 2 4 5 3 2 6 9 11 7 4 5 5 4 5 5 4 2 2 2 1 1 1 2 2 2 1 0 1 1 1 2 2 2 2 2 2 2 2 2 2 2 2 2 2 2 2 1 1
3 3 5 5 2 2 6 10 10 7 6 6 6 6 5 4 3 3 2 1 1 2 2 3 3 3 2 1 1 1 2 2 2 2 2 2 2 2 2 2 2 2 2 2 3 2 2 1 2
4 5 4 4 5 2 4 8 6 5 3 3 4 5 5 5 5 4 3 3 2 2 3 3 4 3 2 2 1 1 1 1 1 2 2 2 2 2 3 3 3 3 3 3 4 4 4 3 3
5 3 4 3 2 4 1 6 7 4 4 4 4 4 4 4 4 4 3 3 3 4 3 3 4 3 3 2 1 2 2 2 3 2 2 3 3 3 3 3 3 3 3 3 4 3 3 4 3
4 1 1 2 2 3 2 4 10 3 5 6 5 4 4 4 4 4 4 4 4 3 2 3 4 3 3 2 3 2 2 2 2 2 3 3 3 3 3 3 3 3 3 4 3 3 3 3 4
2 2 2 2 2 4 5 5 9 3 5 6 4 4 4 3 3 4 3 3 3 2 2 3 3 3 3 2 3 3 3 3 3 3 3 3 3 2 3 3 3 3 3 4 4 4 4 4 4
2 4 3 4 2 6 2 4 10 5 4 4 5 5 3 2 2 3 3 3 3 3 3 3 3 4 3 3 3 3 4 4 4 4 4 3 3 2 3 3 3 3 3 3 3 3 4 4 4
2 4 4 3 4 5 2 7 8 4 4 3 3 2 2 1 2 3 3 3 4 4 4 3 3 4 3 3 3 3 4 3 3 4 4 4 3 3 3 3 3 3 3 3 3 3 3 3 4
3 2 3 3 1 4 6 7 8 3 4 5 4 3 3 3 3 3 4 4 4 4 4 3 4 4 4 3 4 3 4 4 4 4 4 3 3 3 3 3 3 3 3 3 3 2 3 2 3
2 4 3 3 1 4 6 5 5 5 5 5 5 5 5 4 4 4 4 4 4 4 4 3 3 4 4 4 4 3 4 4 4 4 4 3 3 3 3 3 3 3 3 3 2 2 2 2 2
1 2 2 2 2 3 4 7 3 3 3 4 5 5 5 4 4 4 4 4 4 4 4 3 3 3 4 4 4 4 4 4 4 4 4 4 3 3 3 3 3 3 3 2 2 2 2 2 2
2 3 4 3 3 3 3 9 3 2 3 3 4 5 4 4 4 4 5 4 4 5 4 4 4 4 4 4 4 4 4 4 4 4 4 4 4 4 3 3 3 3 3 2 2 2 2 2 2
Wind_Direction
356 11 55 56 58 56 229 234 210 218 221 266 87 126 142 155 162 196 319 18 32 66 63 135 118 122 120 116 109 106 105 103 105 111 112 113 110 106 108 110 108 106 103 102 104 105 106 105 104
0 28 55 61 99 187 252 231 212 213 181 65 29 68 83 65 30 35 355 347 35 64 52 77 104 112 116 115 113 106 107 108 105 109 114 115 113 110 112 114 110 108 106 104 102 103 103 106 108
29 51 83 86 143 194 228 221 210 270 343 66 37 30 94 73 353 343 336 4 50 50 32 38 81 103 108 116 116 111 110 108 109 104 107 113 114 114 114 119 115 114 111 110 108 105 106 105 104
72 52 61 95 209 225 224 234 163 92 23 40 89 15 12 28 337 326 10 51 64 47 31 35 68 85 89 102 113 115 113 106 98 97 97 111 114 118 118 117 116 117 119 119 115 111 108 110 106
59 80 87 171 236 249 256 267 186 124 62 22 99 97 327 2 8 34 51 58 67 47 31 30 58 76 76 81 92 103 110 107 101 93 89 97 104 104 106 109 115 117 125 130 125 118 115 115 112
63 77 119 213 244 269 284 289 140 130 150 39 93 119 268 5 24 23 38 53 58 58 38 32 46 60 67 69 78 86 99 108 100 95 90 84 90 100 105 106 112 113 119 121 124 126 127 126 120
111 117 172 195 229 263 273 325 149 159 181 221 155 140 249 344 1 14 33 44 49 53 46 35 37 43 52 56 59 62 78 91 91 87 81 76 71 93 110 111 118 121 120 116 119 124 133 134 130
120 117 155 200 209 240 291 20 45 145 211 323 132 159 213 251 348 18 35 37 38 38 38 32 27 36 41 44 48 45 50 66 76 73 65 60 60 62 96 98 110 123 124 123 128 123 121 126 125
83 92 197 211 200 223 186 54 357 32 104 10 321 214 240 103 48 40 30 22 26 26 21 18 21 22 20 38 44 42 37 40 51 63 60 62 61 59 76 49 74 110 127 129 140 137 115 84 93
96 157 220 214 192 185 171 144 208 46 13 311 327 357 64 100 105 84 32 10 16 359 356 9 4 7 14 29 41 39 35 33 29 26 65 91 52 26 59 44 58 75 117 143 161 148 106 73 73
141 188 214 271 224 157 215 312 329 150 246 230 224 212 151 119 112 155 201 242 245 280 335 348 354 357 5 19 40 54 50 41 24 21 25 42 86 59 69 86 58 51 109 152 194 128 88 95 90
144 222 207 280 11 32 230 260 307 229 239 239 206 171 163 171 208 218 203 229 299 308 306 328 342 7 355 347 355 59 56 44 11 350 21 57 115 109 130 132 119 112 203 181 163 149 130 136 153
190 233 301 263 19 338 331 265 260 266 267 284 117 144 184 195 223 241 220 203 244 302 302 313 332 353 353 345 316 1 277 217 245 274 330 56 156 221 203 185 175 206 198 197 188 171 173 179 190
193 195 289 307 301 293 234 280 253 259 255 210 184 218 228 224 230 249 236 220 239 272 304 300 319 332 354 343 301 263 254 242 248 239 273 246 206 216 220 207 200 207 206 210 210 200 194 199 204
101 6 326 293 265 252 324 304 247 251 199 222 242 244 247 254 246 234 234 227 228 252 294 306 289 341 346 328 315 297 265 242 235 252 250 249 236 220 228 233 226 219 214 210 208 204 184 195 216
39 15 299 295 270 245 156 267 273 251 185 240 254 255 251 254 245 248 249 246 236 242 278 302 303 324 313 300 292 295 276 249 245 254 258 258 255 233 220 231 243 232 209 198 205 208 206 214 221
37 261 263 294 300 119 180 254 278 288 204 243 253 253 258 272 275 265 258 254 243 243 257 291 299 273 273 278 277 272 278 272 256 251 247 253 255 248 232 243 244 238 216 205 222 221 213 226 234
213 226 255 268 302 218 242 260 276 281 242 245 249 251 256 262 264 266 267 275 276 269 265 272 294 274 269 277 296 296 302 292 275 256 259 256 247 243 236 246 248 224 224 224 212 231 221 217 218
189 208 262 273 290 275 261 270 275 276 259 253 253 247 249 255 263 266 262 270 292 312 298 277 281 274 263 283 273 270 277 283 283 261 256 254 254 241 229 249 246 230 223 233 228 230 223 212 171
222 246 266 287 304 272 281 279 272 259 242 233 235 238 243 262 288 281 269 256 248 266 278 276 276 268 246 234 224 225 243 252 259 270 271 254 249 250 242 236 241 237 233 235 231 225 215 217 188
252 230 241 263 320 329 316 296 275 270 252 250 242 233 232 232 244 259 264 261 260 264 264 270 276 267 258 249 236 297 325 311 303 295 279 267 256 252 243 235 235 238 229 233 234 221 213 217 219
256 251 239 252 303 296 11 292 286 278 286 269 264 258 248 249 243 247 254 263 257 257 264 273 274 266 259 242 222 220 237 258 266 269 272 280 261 254 252 243 235 235 235 237 240 233 232 214 215
224 291 271 266 228 292 265 247 281 302 284 276 266 257 256 252 242 244 249 249 258 265 274 275 271 268 259 240 223 224 247 258 277 280 286 283 273 258 255 252 242 243 246 243 238 245 238 229 219
163 53 33 38 65 271 238 210 278 255 252 276 280 270 256 249 251 258 262 264 282 295 296 287 276 282 274 249 233 226 236 253 268 277 276 276 274 268 256 256 245 245 249 248 241 238 238 233 225
71 75 16 351 341 256 228 219 254 263 264 258 263 270 261 245 257 269 278 285 291 299 296 281 271 285 282 259 245 237 236 239 244 257 263 267 271 271 267 269 259 255 253 257 253 246 244 235 225
190 146 164 216 248 283 273 241 258 279 294 288 262 265 286 284 291 292 289 290 293 291 284 273 273 279 278 263 255 244 235 234 244 251 253 254 255 255 253 254 258 263 262 262 258 258 258 246 231
148 181 178 146 264 280 271 281 298 306 328 338 342 342 316 316 322 311 305 290 291 285 279 274 273 276 273 266 262 253 241 236 244 250 251 254 256 259 244 241 248 258 258 257 251 253 263 254 240
144 152 113 137 207 276 289 278 273 296 310 325 326 316 306 318 322 311 305 304 307 303 295 291 274 270 270 264 262 264 249 241 240 247 254 258 258 254 247 239 241 250 252 257 251 254 254 247 244
128 131 140 147 175 196 282 277 243 259 277 284 288 297 304 303 303 302 302 304 303 307 305 304 299 297 291 279 274 270 260 252 246 246 252 253 253 249 248 245 242 246 250 253 251 251 240 243 245
192 189 159 171 231 203 233 271 292 274 293 295 302 313 321 315 308 304 303 308 311 305 302 298 297 296 289 287 278 269 263 257 247 247 251 246 245 244 241 242 240 243 244 239 236 247 242 234 229